• Em Portugal
  • Lista de países
  • Para 7 dias
  • Temperatura da água
  • Mapas de satélite
  • Mapa do tempo
  • Widgets de tempo
  • user-avatar
    Iniciar Sessão

    Previsão horária em Natitingou

    Hoje, 15 Outubro, Segunda-feira

    Tempo Temperatura Precipitação Vento Pressão Humidade
    00:00 +26°C° 0 mm 2 m/s 717 mmHg 73%
    01:00 +26°C° 0.1 mm 1 m/s 717 mmHg 75%
    02:00 +26°C° 0.1 mm 1 m/s 717 mmHg 78%
    03:00 +25°C° 0.1 mm 1 m/s 717 mmHg 80%
    04:00 +25°C° 0.2 mm 1 m/s 717 mmHg 82%
    05:00 +25°C° 0.2 mm 1 m/s 717 mmHg 84%
    06:00 +24°C° 0 mm 1 m/s 718 mmHg 86%
    07:00 +26°C° 0.3 mm 1 m/s 718 mmHg 79%
    08:00 +28°C° 0.3 mm 1 m/s 719 mmHg 73%
    09:00 +29°C° 0.3 mm 1 m/s 719 mmHg 66%
    10:00 +32°C° 0.1 mm 1 m/s 719 mmHg 59%
    11:00 +34°C° 0.1 mm 1 m/s 719 mmHg 52%
    12:00 +34°C° 0 mm 1 m/s 719 mmHg 52%
    13:00 +34°C° 0 mm 1 m/s 718 mmHg 50%
    14:00 +34°C° 0 mm 1 m/s 718 mmHg 49%
    15:00 +34°C° 0 mm 1 m/s 717 mmHg 48%
    16:00 +32°C° 0 mm 1 m/s 717 mmHg 51%
    17:00 +31°C° 0 mm 1 m/s 717 mmHg 55%
    18:00 +29°C° 0 mm 1 m/s 717 mmHg 59%
    19:00 +29°C° 0.2 mm 1 m/s 717 mmHg 63%
    20:00 +28°C° 0.2 mm 1 m/s 718 mmHg 66%
    21:00 +27°C° 0.2 mm 1 m/s 718 mmHg 70%
    22:00 +27°C° 0 mm 1 m/s 718 mmHg 71%
    23:00 +26°C° 0 mm 1 m/s 718 mmHg 72%

    Amanhã, 16 Outubro, Terça-feira

    Tempo Temperatura Precipitação Vento Pressão Humidade
    00:00 +26°C° 0 mm 1 m/s 718 mmHg 73%
    01:00 +26°C° 0.2 mm 1 m/s 718 mmHg 76%
    02:00 +25°C° 0.2 mm 1 m/s 718 mmHg 80%
    03:00 +24°C° 0.2 mm 1 m/s 718 mmHg 83%
    04:00 +24°C° 0 mm 1 m/s 718 mmHg 83%
    05:00 +24°C° 0 mm 1 m/s 718 mmHg 83%
    06:00 +24°C° 0 mm 1 m/s 718 mmHg 83%
    07:00 +27°C° 0 mm 1 m/s 718 mmHg 75%
    08:00 +29°C° 0 mm 1 m/s 719 mmHg 68%
    09:00 +31°C° 0 mm 1 m/s 720 mmHg 60%
    10:00 +33°C° 0 mm 1 m/s 719 mmHg 53%
    11:00 +35°C° 0 mm 1 m/s 719 mmHg 46%
    12:00 +37°C° 0 mm 1 m/s 719 mmHg 39%
    13:00 +37°C° 0 mm 1 m/s 718 mmHg 39%
    14:00 +36°C° 0 mm 1 m/s 717 mmHg 40%
    15:00 +35°C° 0 mm 1 m/s 717 mmHg 40%
    16:00 +34°C° 0 mm 1 m/s 717 mmHg 45%
    17:00 +32°C° 0 mm 1 m/s 717 mmHg 49%
    18:00 +29°C° 0 mm 0 m/s 717 mmHg 54%
    19:00 +30°C° 0 mm 1 m/s 717 mmHg 57%
    20:00 +29°C° 0 mm 1 m/s 718 mmHg 59%
    21:00 +29°C° 0 mm 1 m/s 718 mmHg 62%
    22:00 +28°C° 0 mm 2 m/s 718 mmHg 66%
    23:00 +28°C° 0 mm 2 m/s 718 mmHg 69%

    Depois de amanhã, 17 Outubro, Quarta-feira

    Tempo Temperatura Precipitação Vento Pressão Humidade
    00:00 +27°C° 0 mm 2 m/s 718 mmHg 73%
    01:00 +27°C° 0 mm 2 m/s 717 mmHg 76%
    02:00 +26°C° 0 mm 2 m/s 717 mmHg 79%
    03:00 +26°C° 0 mm 2 m/s 717 mmHg 82%
    04:00 +25°C° 0 mm 2 m/s 717 mmHg 84%
    05:00 +25°C° 0 mm 2 m/s 717 mmHg 85%
    06:00 +25°C° 0 mm 2 m/s 717 mmHg 87%
    07:00 +26°C° 0 mm 2 m/s 718 mmHg 80%
    08:00 +28°C° 0 mm 3 m/s 718 mmHg 73%
    09:00 +30°C° 0 mm 3 m/s 719 mmHg 65%
    10:00 +31°C° 0 mm 3 m/s 718 mmHg 60%
    11:00 +34°C° 0 mm 2 m/s 718 mmHg 54%
    12:00 +35°C° 0 mm 2 m/s 718 mmHg 49%
    13:00 +35°C° 0 mm 2 m/s 717 mmHg 49%
    14:00 +35°C° 0 mm 2 m/s 716 mmHg 49%
    15:00 +34°C° 0 mm 1 m/s 716 mmHg 49%
    16:00 +33°C° 0 mm 1 m/s 716 mmHg 53%
    17:00 +31°C° 0 mm 2 m/s 716 mmHg 58%
    18:00 +30°C° 0 mm 2 m/s 716 mmHg 62%
    19:00 +29°C° 2.7 mm 2 m/s 716 mmHg 69%
    20:00 +28°C° 2.7 mm 2 m/s 717 mmHg 76%
    21:00 +26°C° 2.7 mm 2 m/s 718 mmHg 83%
    22:00 +26°C° 3.3 mm 2 m/s 718 mmHg 84%
    23:00 +26°C° 3.3 mm 2 m/s 718 mmHg 86%

    18 Outubro, Quinta-feira

    Tempo Temperatura Precipitação Vento Pressão Humidade
    00:00 +25°C° 3.3 mm 2 m/s 718 mmHg 88%
    01:00 +25°C° 0.2 mm 2 m/s 717 mmHg 89%
    02:00 +25°C° 0.2 mm 2 m/s 717 mmHg 90%
    03:00 +24°C° 0.2 mm 2 m/s 716 mmHg 91%
    04:00 +24°C° 0 mm 2 m/s 716 mmHg 90%
    05:00 +24°C° 0 mm 3 m/s 716 mmHg 89%
    06:00 +24°C° 0 mm 3 m/s 716 mmHg 88%
    07:00 +25°C° 0 mm 3 m/s 716 mmHg 84%
    08:00 +26°C° 0 mm 3 m/s 717 mmHg 80%
    09:00 +27°C° 0 mm 3 m/s 717 mmHg 76%
    10:00 +29°C° 0 mm 3 m/s 717 mmHg 71%
    11:00 +30°C° 0 mm 3 m/s 717 mmHg 65%
    12:00 +31°C° 0 mm 3 m/s 716 mmHg 59%
    13:00 +32°C° 0 mm 2 m/s 716 mmHg 57%
    14:00 +32°C° 0 mm 2 m/s 715 mmHg 55%
    15:00 +33°C° 0 mm 1 m/s 714 mmHg 54%
    16:00 +31°C° 0 mm 1 m/s 715 mmHg 58%
    17:00 +30°C° 0 mm 1 m/s 715 mmHg 63%
    18:00 +29°C° 0 mm 1 m/s 715 mmHg 67%
    19:00 +28°C° 0 mm 1 m/s 716 mmHg 68%
    20:00 +28°C° 0 mm 1 m/s 716 mmHg 69%
    21:00 +28°C° 0 mm 1 m/s 717 mmHg 70%
    22:00 +27°C° 0 mm 1 m/s 717 mmHg 72%
    23:00 +27°C° 0 mm 1 m/s 716 mmHg 75%

    19 Outubro, Sexta-feira

    Tempo Temperatura Precipitação Vento Pressão Humidade
    00:00 +26°C° 0 mm 2 m/s 716 mmHg 77%
    01:00 +26°C° 0 mm 2 m/s 716 mmHg 79%
    02:00 +26°C° 0 mm 2 m/s 716 mmHg 81%
    03:00 +25°C° 0 mm 2 m/s 715 mmHg 83%
    04:00 +25°C° 0.2 mm 2 m/s 716 mmHg 85%
    05:00 +24°C° 0.2 mm 1 m/s 716 mmHg 88%
    06:00 +24°C° 0.2 mm 1 m/s 717 mmHg 90%
    07:00 +26°C° 0 mm 2 m/s 717 mmHg 84%
    08:00 +27°C° 0 mm 2 m/s 718 mmHg 77%
    09:00 +29°C° 0 mm 3 m/s 718 mmHg 70%
    10:00 +31°C° 0 mm 3 m/s 718 mmHg 64%
    11:00 +32°C° 0 mm 2 m/s 717 mmHg 59%
    12:00 +34°C° 0 mm 2 m/s 716 mmHg 53%
    13:00 +35°C° 0 mm 2 m/s 716 mmHg 52%
    14:00 +34°C° 0 mm 1 m/s 715 mmHg 50%
    15:00 +34°C° 0 mm 1 m/s 715 mmHg 49%
    16:00 +33°C° 0 mm 1 m/s 715 mmHg 53%
    17:00 +31°C° 0 mm 1 m/s 715 mmHg 58%
    18:00 +30°C° 0 mm 1 m/s 715 mmHg 62%
    19:00 +29°C° 0 mm 1 m/s 716 mmHg 64%
    20:00 +29°C° 0 mm 1 m/s 716 mmHg 67%
    21:00 +28°C° 0 mm 1 m/s 717 mmHg 69%
    22:00 +27°C° 0.3 mm 2 m/s 716 mmHg 73%
    23:00 +27°C° 0.3 mm 2 m/s 716 mmHg 77%

    20 Outubro, Sábado

    Tempo Temperatura Precipitação Vento Pressão Humidade
    00:00 +26°C° 0.3 mm 2 m/s 716 mmHg 80%
    01:00 +26°C° 0.1 mm 2 m/s 716 mmHg 82%
    02:00 +25°C° 0.1 mm 2 m/s 715 mmHg 84%
    03:00 +25°C° 0.1 mm 1 m/s 715 mmHg 86%
    04:00 +25°C° 0.2 mm 1 m/s 715 mmHg 87%
    05:00 +24°C° 0.2 mm 1 m/s 716 mmHg 88%
    06:00 +24°C° 0.2 mm 1 m/s 716 mmHg 90%
    07:00 +26°C° 0 mm 1 m/s 717 mmHg 81%
    08:00 +28°C° 0 mm 1 m/s 717 mmHg 72%
    09:00 +30°C° 0 mm 2 m/s 718 mmHg 64%
    10:00 +33°C° 0 mm 1 m/s 717 mmHg 57%
    11:00 +35°C° 0 mm 1 m/s 717 mmHg 51%
    12:00 +35°C° 0 mm 0 m/s 717 mmHg 45%
    13:00 +36°C° 0 mm 1 m/s 716 mmHg 45%
    14:00 +36°C° 0 mm 1 m/s 715 mmHg 46%
    15:00 +35°C° 0 mm 1 m/s 715 mmHg 46%
    16:00 +33°C° 0 mm 1 m/s 715 mmHg 51%
    17:00 +32°C° 0 mm 1 m/s 715 mmHg 55%
    18:00 +31°C° 0 mm 1 m/s 715 mmHg 59%
    19:00 +30°C° 0 mm 1 m/s 715 mmHg 61%
    20:00 +29°C° 0 mm 1 m/s 715 mmHg 64%
    21:00 +29°C° 0 mm 1 m/s 716 mmHg 66%
    22:00 +28°C° 0 mm 1 m/s 715 mmHg 68%
    23:00 +28°C° 0 mm 1 m/s 715 mmHg 69%
    Mostrar mais